星链-34096 (STARLINK-34096)

导读

STARLINK-34096是美国太空探索技术公司星链互联网卫星星座的一员,于2025年5月16日成功发射。星链项目旨在构建全球卫星互联网覆盖网络,为偏远地区、海上及航空场景提供低延迟宽带服务,该卫星加入后进一步扩充了星座规模,推进了星链全球服务覆盖的建设进程。

Basic Information
目录编号:
64043
目录名称:
STARLINK-34096
国际标识:
2025-102X
轨道中心:
EARTH
卫星名称:
星链-34096
卫星全名:
星链-34096 (STARLINK-34096)
卫星状态:
在轨 (已飞行394 天)
发射日期:
2025-05-16 UTC
国别 :
美国 (US)
星等 :
--
Orbit Information
数据来源 国际轨道数据 AOE轨道数据
星历时间 2026-06-13T21:54:02+0800
13小时前
查看轨道信息
2026-06-14T03:00:00+0800
8小时前
查看轨道信息
半长轴 6950.188km 6950.132km
偏心率 0.0003501 0.0004033
轨道倾角 70.001° 70.000°
近地点辐角 267.577° 278.430°
升交点赤经 232.754° 232.218°
平近点角 92.499° 147.430°
近地点 569.617km 569.192km
远地点 574.485km 574.798km
周期 96.107分钟 96.106分钟
每日圈数 14.983318 14.983499
Detailed Information
固有亮度:
5
最大亮度:
2.5
卫星平台:
Starlink V1.0
覆盖范围:
全球
运营商:
太空探索技术公司
运营商所在国:
美国
制造商(研发单位):
太空探索技术公司
制造商所在国:
美国
使用方式:
暂无
Satellite Introduction
Starlink 计划是 SpaceX 推出的全球卫星互联网项目,通过发射低轨道卫星,为全球尤其是偏远地区提供高速、低延迟的互联网服务。自 2019 年起,Starlink 已部署数千颗卫星,旨在缩小全球数字鸿沟,推动互联网普及。该项目还为军事、航空等行业提供通信支持,带来广泛经济效益。
2D Orbit Map
3D Orbit Map
Orbit Altitude Analysis Chart
Orbit Inclination Analysis Chart
Orbit Comprehensive Analysis Chart
View Comprehensive Chart